User: anonymous   Login
Location: Unspecified
(0.0000°N, 0.0000°E)
Time: 10:14:08
(UTC+00:00)
Language:

CUSAT 1 - Orbit

View from above orbital plane
View from above orbital plane
View from above satellite
View from above satellite

Ground track
Ground track

The orbit data is extracted from the following two-line orbital elements,

1 39266U 13055B   19082.21034447  .00002247  00000-0  59810-4 0  9997
2 39266  80.9845  54.2998 0641732 138.8239 226.3252 14.34266156284167
Epoch (UTC): 23 March 2019 05:02:53
Eccentricity: 0.0641732
inclination: 80.9845°
perigee height: 318 km
apogee height: 1237 km
right ascension of ascending node: 54.2998°
argument of perigee: 138.8239°
revolutions per day: 14.34266156
mean anomaly at epoch: 226.3252°
orbit number at epoch: 28416

The dashed part of the orbit path shows where the satellite is in the earth's shadow,  

DLR